Location: Aghk�ilisa
(40.0189°N, 45.0097°E)
Time: 12:46:35
(UTC+00:00)

COSMO-SKYMED 1 - Pass Details

Date: 21 October 2019
Orbit: 621 x 623 km, 97.9° (Epoch: 15 November)

Event Time Altitude Azimuth Distance (km) Brightness Sun altitude
Rises 15:13:48 0° 10° (N) 2,910 5.9 -12.4°
Reaches altitude 10° 15:16:00 10° 9° (N) 1,999 5.0 -12.9°
Maximum altitude 15:20:20 74° 285° (WNW) 651 2.8 -13.7°
Drops below altitude 10° 15:24:39 10° 200° (SSW) 1,983 5.4 -14.5°
Sets 15:26:49 0° 199° (SSW) 2,885 6.3 -14.9°
